Weather in Cafayate

Argentina     26°04′22″S   65°58′31″W
temp.,
°C
wind,
m/s
gust,
m/s
humid.,
%
clouds,
%
prec.,
mm/h
press.,
hPa
HPBL,
m
27 june, mon
mon2700:00+8nw125473 0.0 101319
03:00+8nw125377 0.0 101217
06:00+7wnw115599 0.0 101116
09:00+9w214699 0.0 101127
12:00+15ne2232100 0.0 1009544
15:00+19n39211 0.0 10041611
18:00+18nw816231 0.0 10061857
21:00+12nw672548 0.0 100993
28 june, tue
tue2800:00+11w44243 0.0 101131
03:00+9w32210 0.0 101317
06:00+6sw12312 0.0 101719
09:00+5nne12440 0.0 102237
12:00+9ene32360 0.0 1021514
15:00+12ene43270 0.0 1018922
18:00+11ene33300 0.0 1018344
21:00+7n12390 0.0 102116
29 june, wed
wed2900:00+6w11360 0.0 102116
03:00+5w11330 0.0 101913
06:00+4wnw11410 0.0 101711
09:00+6wnw11200 0.0 101811
12:00+14ene21140 0.0 1016282
15:00+17ene22110 0.0 1010445
18:00+16ne12150 0.0 100926
21:00+11w21180 0.0 101214
30 june, thu
thu3000:00+10wsw22140 0.0 101314
03:00+9sw11200 0.0 101313
06:00+9wnw23210 0.0 101411
09:00+8nnw22140 0.0 101711
12:00+14ne43180 0.0 1016574
15:00+15ene54210 0.0 1012865
18:00+13ne43290 0.0 1012318
21:00+7nne12430 0.0 101414
1 july, fri
fri100:00+6n12460 0.0 101416
03:00+6wsw11370 0.0 101220
06:00+6wsw22350 0.0 101015
09:00+7wsw22184 0.0 101117
12:00+15ne221013 0.0 1009379
15:00+19e237100 0.0 1004596
18:00+17nw0110100 0.0 100331
21:00+14w44796 0.0 100517